This is the latest recevied weather packets stored in our database for station/object N1YZ. If no packets are shown the sender has not sent any weather packets the latest 10 day(s).
| Time | Temp. | Humidity | Pressure | Rain* | Wind** | Luminosity | Snow |
|---|---|---|---|---|---|---|---|
| 1777817088 | 13.33° C | 75% | 1041.2 hPa | 0 mm | - | 27 W/m² | - |
| 1777816784 | 13.33° C | 75% | 1041.2 hPa | 0 mm | - | 27 W/m² | - |
| 1777816483 | 13.33° C | 73% | 1041 hPa | 0 mm | - | 26 W/m² | - |
| 1777816180 | 13.33° C | 76% | 1041.3 hPa | 0 mm | - | 31 W/m² | - |
| 1777815877 | 12.22° C | 78% | 1041.2 hPa | 0 mm | - | 208 W/m² | - |
| 1777815575 | 12.22° C | 81% | 1041 hPa | 0 mm | - | 26 W/m² | - |
| 1777815272 | 11.67° C | 80% | 1041.4 hPa | 0 mm | - | 28 W/m² | - |
| 1777814968 | 11.67° C | 83% | 1041 hPa | 0 mm | - | 37 W/m² | - |
| 1777814665 | 11.11° C | 83% | 1041 hPa | 0 mm | - | 22 W/m² | - |
| 1777814361 | 11.11° C | 84% | 1041.3 hPa | 0 mm | - | 21 W/m² | - |
| 1777814059 | 10.56° C | 85% | 1041.3 hPa | 0 mm | - | 24 W/m² | - |
| 1777813755 | 10.56° C | 85% | 1041.3 hPa | 0 mm | - | 38 W/m² | - |
| 1777813453 | 10.56° C | 86% | 1041.4 hPa | 0 mm | - | 20 W/m² | - |
| 1777813150 | 10° C | 88% | 1041.3 hPa | 0 mm | - | 21 W/m² | - |
| 1777812848 | 9.44° C | 90% | 1041 hPa | 0 mm | - | 18 W/m² | - |
| 1777812544 | 8.89° C | 91% | 1041.2 hPa | 0 mm | - | 18 W/m² | - |
| 1777812242 | 8.33° C | 92% | 1041.3 hPa | 0 mm | - | 17 W/m² | - |
| 1777811940 | 8.33° C | 94% | 1041.3 hPa | 0 mm | - | 17 W/m² | - |
| 1777811639 | 8.33° C | 96% | 1041 hPa | 0 mm | - | 16 W/m² | - |
| 1777811334 | 7.78° C | 97% | 1041 hPa | 0 mm | - | 16 W/m² | - |
| 1777811031 | 7.78° C | 97% | 1040.8 hPa | 0 mm | - | 15 W/m² | - |
| 1777810728 | 7.78° C | 97% | 1040.9 hPa | 0 mm | - | 14 W/m² | - |
| 1777810425 | 7.78° C | 97% | 1040.7 hPa | 0 mm | - | 14 W/m² | - |
| 1777810120 | 7.22° C | 97% | 1040.8 hPa | 0 mm | - | 13 W/m² | - |
| 1777809818 | 7.22° C | 97% | 1041 hPa | 0 mm | - | 13 W/m² | - |
* Rain latest hour (hover to see other rain measurements)
** Current wind speed in m/s (hover to see current wind gust speed)